Retour au catalogue

CZ-4C DEB

ActifPO
NORAD 35248·DEBRIS·🇨🇳 China

Lancé Nov 11, 2007 depuis Taiyuan Satellite Launch Center

Loading…

Prochains Passages (prochaines 24 heures)

TLE

FraisSource: Space-Track

Époque: Sep 13, 2026, 23:58 UTC

1 35248U 07055C   26256.99886696  .00284416  00000-0  22321-2 0  9998
2 35248  97.8470  91.0199 0017824 315.9618  44.0223 15.70491434  2367

Suivez CZ-4C DEB en temps réel avec AllMySat

Download on the App Store